This is the latest recevied weather packets stored in our database for station/object W4SPD. If no packets are shown the sender has not sent any weather packets the latest 10 day(s).
| Time | Temp. | Humidity | Pressure | Rain* | Wind** | Luminosity | Snow |
|---|---|---|---|---|---|---|---|
| 1778110151 | 20° C | 99% | - | 0 mm | - | - | - |
| 1778109847 | 20° C | 98% | - | 31.75 mm | - | - | - |
| 1778109543 | 20.56° C | 98% | - | 50.29 mm | - | - | - |
| 1778109241 | 21.11° C | 97% | - | 21.59 mm | - | - | - |
| 1778108938 | 22.22° C | 94% | - | 18.03 mm | - | - | - |
| 1778108634 | 23.33° C | 87% | - | 10.67 mm | - | - | - |
| 1778108330 | 23.89° C | 81% | - | 0 mm | - | - | - |
| 1778108028 | 23.89° C | 79% | - | 0 mm | - | - | - |
| 1778107724 | 23.89° C | 78% | - | 0 mm | - | - | - |
| 1778107421 | 24.44° C | 78% | - | 0 mm | - | - | - |
| 1778107118 | 24.44° C | 77% | - | 0 mm | - | - | - |
| 1778106813 | 24.44° C | 77% | - | 0 mm | - | - | - |
| 1778106511 | 24.44° C | 77% | - | 0 mm | - | - | - |
| 1778106206 | 24.44° C | 77% | - | 0 mm | - | - | - |
| 1778105899 | 24.44° C | 76% | - | 0 mm | - | - | - |
| 1778105596 | 24.44° C | 76% | - | 0 mm | - | - | - |
| 1778105294 | 24.44° C | 75% | - | 0 mm | - | - | - |
| 1778104994 | 24.44° C | 75% | - | 0 mm | - | - | - |
| 1778104690 | 24.44° C | 75% | - | 0 mm | - | - | - |
| 1778104386 | 24.44° C | 75% | - | 0 mm | - | - | - |
| 1778104082 | 24.44° C | 75% | - | 0 mm | - | - | - |
| 1778103779 | 25° C | 74% | - | 0 mm | - | - | - |
| 1778103478 | 25° C | 73% | - | 0 mm | - | - | - |
| 1778103174 | 25.56° C | 73% | - | 0 mm | - | - | - |
| 1778102872 | 25.56° C | 73% | - | 0 mm | - | - | - |
* Rain latest hour (hover to see other rain measurements)
** Current wind speed in m/s (hover to see current wind gust speed)